TIME,DELAY(SENSOR),PRES,OXYGEN,RAWTEMP,T(OPTODE),TCPHASE,FLUOR,BETA(BETA700),BETA(BETA412),BETA(BETA440),CDOM,C(CSC),ED(ED412.40),ED(ED444.00),ED(ED489.70),ED(ED554.30),LU(LU411.80),LU(LU443.40),LU(LU489.60),LU(LU554.10),COMP,TILTX,TILTY,CHECK
1361591419,5806,883.1900024414062000,44.8993682861328100,659.4783935546875000,4.6451439857482910,54.2684516906738300,53,101,90,79,80,14905,2147755593,2147424128,2148009526,2147876452,2147637229,2147060635,2148262646,2147195840,3572,4,14,3746
1361595015,5811,957.8499755859375000,47.3276596069335940,668.2709960937500000,4.3552951812744140,54.0255889892578100,53,100,85,79,81,14906,2147756013,2147425545,2148009536,2147874706,2147641993,2147055817,2148257782,2147196342,3302,4,13,51999
1361598615,5808,971.8099975585938000,48.3092308044433600,669.5147705078125000,4.3142237663269040,53.9027099609375000,53,99,86,80,80,14907,2147759204,2147425371,2148010916,2147876425,2147643657,2147051300,2148261568,2147198272,374,4,13,34169
1361602215,5811,979.5399780273438000,48.4597206115722660,670.8261718750000000,4.2709031105041500,53.8984298706054700,53,98,87,80,80,14908,2147758491,2147426697,2148010532,2147870912,2147641673,2147053366,2148258852,2147197979,349,4,13,4919
1361605815,5811,985.2600097656250000,48.3119888305664060,670.7916259765625000,4.2720451354980470,53.9132118225097660,53,98,84,79,80,14905,2147759131,2147424868,2148011136,2147874194,2147644498,2147053321,2148259584,2147198372,53,4,13,21582
1361609415,5807,988.7500000000000000,47.9276885986328100,670.1666259765625000,4.2926921844482420,53.9609985351562500,53,99,88,78,80,14903,2147758198,2147422774,2148008978,2147873984,2147642358,2147053540,2148257581,2147197037,3569,4,13,48093
1361613015,5806,979.2199707031250000,48.3683891296386700,671.3809204101562000,4.2525711059570310,53.9156799316406250,52,99,82,80,79,14896,2147756955,2147424694,2148009728,2147873380,2147640018,2147049737,2148258971,2147201033,3526,4,13,15967
1361616615,5808,977.8099975585938000,48.5025100708007800,672.0590209960938000,4.2301559448242190,53.9045600891113300,53,100,87,79,79,14900,2147755986,2147423433,2148005357,2147876708,2147637577,2147057462,2148258980,2147198893,3564,4,13,22384
1361620215,5807,977.7199707031250000,48.9443893432617200,673.0529785156250000,4.1972899436950680,53.8531608581543000,52,100,84,78,79,14888,2147758848,2147425837,2148009398,2147875117,2147645357,2147059126,2148261366,2147197302,505,4,13,55877
1361623815,5807,980.9099731445312000,49.1136589050293000,672.7003784179688000,4.2089500427246090,53.8260002136230500,53,99,86,80,82,14902,2147755684,2147422272,2148012132,2147871506,2147642267,2147055451,2148253257,2147199862,69,4,13,13099
1361627415,5808,978.4799804687500000,49.0747489929199200,674.3256835937500000,4.1551952362060550,53.8524818420410160,52,98,82,78,80,14903,2147758400,2147424886,2148013741,2147873453,2147642386,2147054528,2148262500,2147197430,5,4,13,63906
1361631015,5809,983.5200195312500000,49.8073501586914060,674.4055786132812000,4.1525521278381350,53.7556495666503900,52,99,89,80,81,14899,2147755300,2147428251,2148008219,2147875318,2147641353,2147060123,2148260781,2147197888,3493,4,13,8230
1361634615,5808,986.2999877929688000,49.3106918334960940,673.1671142578125000,4.1935210227966310,53.8060302734375000,52,98,87,80,80,14881,2147756406,2147425252,2148011584,2147873499,2147638317,2147053906,2148259986,2147199259,138,4,13,8870
1361638215,5807,993.5000000000000000,49.1483688354492200,672.8179931640625000,4.2050628662109375,53.8264808654785160,52,99,86,80,79,14898,2147761801,2147423680,2148008073,2147875236,2147643547,2147054976,2148261522,2147203949,578,4,13,55476
1361641815,5811,993.9299926757812000,48.4228782653808600,671.9580078125000000,4.2334961891174320,53.9178085327148440,52,99,86,79,81,14900,2147756397,2147423588,2148011410,2147870336,2147642441,2147055771,2148261257,2147198418,482,4,13,8120
1361645415,5808,1003.0999755859375000,48.0807991027832000,671.3552856445312000,4.2534160614013670,53.9554290771484400,52,100,88,78,80,14900,2147758043,2147427218,2148009965,2147875108,2147640484,2147057069,2148259401,2147198372,22,4,13,22140
1361649015,5811,1003.0200195312500000,46.9455413818359400,669.9987792968750000,4.2982368469238280,54.0995407104492200,53,98,87,78,80,14899,2147755136,2147421558,2148011830,2147873453,2147636278,2147062829,2148257837,2147199515,3500,4,13,63912
1361652615,5806,1000.0800170898438000,47.7718887329101560,671.2896118164062000,4.2555890083312990,53.9946708679199200,52,96,83,80,81,14895,2147759606,2147426752,2148009691,2147874185,2147637924,2147060544,2148253741,2147198884,3443,4,14,15469
1361656215,5807,1002.3800048828125000,48.1471099853515600,671.2578125000000000,4.2566380500793460,53.9454689025878900,52,99,87,80,80,14897,2147757330,2147425801,2148012013,2147872466,2147644745,2147055113,2148263707,2147201746,3114,4,14,29105
1361659815,5811,997.7399902343750000,47.8902397155761700,671.9022827148438000,4.2353382110595700,53.9900283813476560,52,101,90,78,80,14901,2147754368,2147424914,2148010761,2147874029,2147641773,2147057353,2148263186,2147200301,186,4,13,33568
1361663415,5807,996.7999877929688000,48.3246498107910160,671.8837890625000000,4.2359490394592285,53.9253387451171900,52,99,87,79,81,14898,2147759670,2147424484,2148008320,2147871241,2147638976,2147058249,2148261238,2147198537,141,4,13,10266
1361667015,5810,998.7299804687500000,48.0566482543945300,671.1259155273438000,4.2609977722167970,53.9541587829589840,52,98,88,80,80,14899,2147759076,2147423597,2148008548,2147873106,2147641170,2147055716,2148254921,2147197467,3281,4,13,45707
1361670615,5809,994.7999877929688000,47.6747207641601560,671.8543701171875000,4.2369208335876465,54.0217590332031250,52,99,86,79,80,14896,2147755309,2147425728,2148009883,2147876964,2147643172,2147059602,2148258276,2147197110,3334,4,13,21162
1361674215,5810,1007.7000122070312000,47.9208488464355500,670.7114868164062000,4.2746911048889160,53.9658088684082000,52,98,85,78,80,14895,2147758244,2147424987,2148012617,2147872923,2147642907,2147058185,2148260233,2147195977,59,4,13,65013
1361677815,5809,997.2800292968750000,47.6585006713867200,671.4600830078125000,4.2499542236328125,54.0145301818847660,53,99,84,78,82,14897,2147757449,2147425974,2148010093,2147875044,2147644068,2147059492,2148255972,2147197842,45,4,13,34292
1361681415,5809,995.8099975585938000,47.6177902221679700,672.0974731445312000,4.2288861274719240,54.0286293029785160,53,97,85,79,81,14895,2147755913,2147423396,2148010733,2147874148,2147640886,2147059355,2148259565,2147198729,144,4,13,35466
1361685015,5809,997.6900024414062000,47.9202308654785160,672.6707763671875000,4.2099299430847170,53.9941902160644500,52,101,89,78,80,14896,2147758902,2147424923,2148009426,2147873380,2147642441,2147060845,2148260763,2147198738,192,4,13,51964
1361688615,5808,988.5200195312500000,48.0949707031250000,673.1627807617188000,4.1936631202697750,53.9732589721679700,52,98,85,80,80,14894,2147756909,2147425014,2148010166,2147872941,2147643062,2147057737,2148264329,2147192393,129,4,13,43953
1361692215,5804,996.5900268554688000,47.9124488830566400,673.5488891601562000,4.1808929443359375,54.0082702636718750,53,98,85,80,80,14892,2147755565,2147422473,2148013147,2147875721,2147640978,2147060918,2148257993,2147196050,231,4,14,45872
1361695815,5806,990.0700073242188000,48.3045997619628900,673.7385864257812000,4.1746158599853520,53.9498901367187500,52,100,90,79,80,14893,2147753572,2147425261,2148011273,2147876187,2147638473,2147053988,2148257929,2147196379,13,4,13,24014
1361699415,5809,993.8599853515625000,48.9219284057617200,674.0654296875000000,4.1638069152832030,53.8699607849121100,53,98,88,81,81,14887,2147756480,2147424265,2148010688,2147874203,2147640822,2147056109,2148258377,2147199862,3252,4,13,740
1361703015,5809,994.1300048828125000,48.9799194335937500,674.5170288085938000,4.1488690376281740,53.8686294555664060,52,98,89,80,81,14889,2147754724,2147422674,2148009819,2147875748,2147638985,2147061110,2148261083,2147198674,3258,4,13,32582
1361706615,5807,990.7199707031250000,48.9057998657226560,674.7094726562500000,4.1424980163574220,53.8801994323730500,53,99,86,79,82,14892,2147759250,2147426038,2148010733,2147874532,2147641380,2147057179,2148261403,2147198006,2688,4,13,56134
1361710215,5811,990.9099731445312000,49.4083786010742200,675.4124145507812000,4.1192378997802730,53.8222618103027340,53,98,86,79,80,14891,2147759058,2147422070,2148010697,2147873572,2147641170,2147059748,2148263497,2147197165,3166,4,13,60030
1361713815,5810,995.0100097656250000,48.8301887512207000,674.0308837890625000,4.1649489402771000,53.8847198486328100,52,125,82,78,80,14885,2147755382,2147425133,2148009481,2147874806,2147642852,2147057225,2148257920,2147200109,3584,4,14,2290
1361717415,5809,1002.6799926757812000,48.9759292602539060,673.4572753906250000,4.1839241981506350,53.8561401367187500,52,99,85,81,80,14885,2147760210,2147424877,2148008667,2147872502,2147641929,2147064758,2148263872,2147201152,3494,4,13,2252
1361721015,5806,998.2999877929688000,48.3874015808105500,673.1447753906250000,4.1942582130432130,53.9370994567871100,52,99,88,78,80,14885,2147757357,2147426441,2148009097,2147871533,2147638107,2147061238,2148261412,2147196745,449,4,13,46457
1361724615,5808,996.0200195312500000,48.4259490966796900,673.5164794921875000,4.1819629669189450,53.9369888305664060,51,98,86,79,80,14883,2147756571,2147424877,2148010834,2147875428,2147640539,2147057014,2148265243,2147193481,37,4,13,22908
1361728215,5809,1004.4899902343750000,48.7329216003418000,672.6088867187500000,4.2119770050048830,53.8771095275878900,52,98,88,79,80,14880,2147754688,2147422930,2148011977,2147874477,2147641380,2147058038,2148261961,2147197019,448,4,13,58255
1361731815,5808,1010.0599975585938000,47.5430107116699200,671.1472167968750000,4.2602958679199220,54.0267906188964840,52,99,86,80,79,14877,2147758500,2147424566,2148010441,2147872795,2147641179,2147056658,2148256329,2147197421,3204,4,13,60268
1361735415,5809,1018.4299926757812000,47.9995994567871100,671.1572875976562000,4.2599601745605470,53.9618797302246100,52,99,86,81,81,14852,2147757467,2147423990,2148012205,2147873618,2147639012,2147055552,2148260233,2147193545,336,4,13,39216
1361736055,5810,1012.0300292968750000,47.6632690429687500,670.6505737304688000,4.2767047882080080,54.0026206970214840,52,100,88,78,81,14868,2147756105,2147423140,2148012553,2147874340,2147641142,2147061622,2148255798,2147196763,408,4,13,19822
